CAPE
857 724 1171 1592 1753 1850 1766 1620 1644 1804 1736 1768 1889 1898 1792 1748 1707 1638 1492 1306 1126 1090 1114 1029 963 952 957 833 734 602 542 676 686 716 800 814 757 688 721 689 565 573 556 683 1032 1006 951 904 852 761 540 66 4 0 0 0 0 0 0 0 0 0 0 1 515 723 787 637 398 487 438 314 322 496 608 714 496 478 358 392 395 302 244 487 700
760 810 1133 1593 1749 1909 1790 1608 1652 1777 1795 1805 1896 1956 1844 1786 1692 1632 1466 1315 1158 1101 1056 939 717 803 842 816 736 612 596 681 668 726 740 740 715 700 666 635 643 654 635 1074 1123 834 681 822 653 686 537 293 77 18 1 0 0 0 0 0 0 0 0 0 512 474 80 357 810 842 678 347 402 555 602 493 632 600 443 323 204 102 189 435 599
828 932 1014 1568 1695 1870 1837 1743 1736 1820 1818 1833 1858 1971 1915 1880 1716 1616 1608 1294 1181 1053 1013 920 799 805 779 728 754 620 730 742 694 744 727 663 746 647 624 657 689 581 1103 963 948 683 569 690 673 488 295 99 46 24 2 0 0 0 0 0 0 0 0 0 204 444 0 0 13 241 719 556 346 417 606 587 496 409 354 481 411 334 245 390 485
968 997 999 1496 1659 1718 1825 1826 1797 1886 1940 1927 2034 2005 1880 1827 1726 1584 1406 1243 1182 1098 958 866 776 717 844 698 566 579 623 654 736 751 721 716 746 756 733 704 616 1076 968 789 770 680 714 639 457 231 95 51 18 7 0 0 0 0 0 0 0 0 0 0 35 310 0 0 0 0 235 83 276 178 340 497 527 443 308 334 431 354 284 288 360
1026 1072 1050 1427 1622 1639 1772 1815 1912 1888 2062 2059 2029 1946 1774 1711 1580 1483 1301 1243 1182 1110 944 726 790 864 906 666 554 570 510 515 628 604 695 725 713 844 769 747 848 909 890 747 598 708 612 472 270 133 50 14 4 0 0 0 0 0 0 0 0 0 0 0 0 0 0 0 0 0 15 392 428 442 214 250 417 360 443 238 115 170 171 246 255
1068 1027 1032 1414 1587 1588 1674 1871 1950 1944 2055 2071 1940 1890 1744 1715 1575 1494 1367 1303 1193 1077 894 774 900 949 984 934 691 567 624 611 728 659 641 711 711 800 838 787 826 902 792 719 597 577 448 314 162 68 18 0 0 0 0 0 0 0 0 0 0 0 0 0 0 0 0 0 0 0 35 25 101 333 468 196 165 202 253 268 166 151 148 205 250
1169 1056 987 1356 1557 1574 1630 1846 1994 2003 2056 2065 1948 1838 1826 1734 1575 1522 1391 1350 1193 1071 898 899 1004 1050 997 1012 1064 928 847 789 789 735 761 679 619 822 846 789 843 829 798 695 628 504 317 158 72 15 1 0 0 0 0 0 0 0 0 0 0 0 0 0 0 0 0 0 0 254 112 319 488 494 579 545 444 272 233 256 250 168 164 155 146
1226 1061 913 1222 1475 1516 1624 1815 2016 2078 2037 2029 1968 1899 1810 1686 1617 1527 1373 1218 1161 1055 961 1084 1035 1076 1035 1074 1071 982 952 880 812 767 683 602 613 818 801 791 844 852 772 644 512 334 180 76 14 1 0 0 0 0 0 0 0 0 0 0 0 0 0 0 0 0 0 0 0 337 317 415 467 488 636 544 469 526 357 312 235 68 54 124 171
1168 1106 954 1094 1346 1459 1594 1730 2028 2132 1997 2060 1976 1896 1696 1568 1658 1466 1269 1225 1223 1112 1050 1013 1068 1091 1040 1132 1153 1062 1002 957 908 768 664 644 591 737 808 832 792 792 698 540 385 253 118 33 9 0 0 0 0 0 0 0 0 0 0 0 0 0 0 0 0 0 0 0 0 365 396 439 388 460 598 537 525 463 559 444 479 44 29 128 206
1135 1080 979 1017 1214 1416 1569 1727 2001 2115 1983 2035 1980 1914 1629 1682 1497 1274 1227 1268 1258 1195 1073 1070 1159 1131 1139 1081 1172 1197 1070 973 999 795 657 623 710 726 813 892 850 682 565 446 311 190 72 20 0 0 1 0 0 0 0 0 0 0 0 0 0 0 0 0 0 0 0 0 100 400 361 311 326 383 365 402 322 357 393 194 45 33 227 182 120
1143 1132 1044 958 1091 1362 1576 1760 1914 2009 1978 1976 1950 1845 1607 1542 1505 1275 1164 1246 1248 1263 1104 1140 1156 1147 1220 1207 1256 1243 1213 1088 962 794 734 624 763 880 852 753 779 591 426 324 172 79 8 0 0 0 2 0 0 0 0 0 0 0 0 0 0 0 0 0 0 0 0 0 199 232 260 213 114 196 410 386 445 407 410 394 350 232 42 41 39
1212 1233 1113 930 1019 1339 1553 1735 1911 2014 2007 1920 1905 1835 1662 1533 1424 1229 1229 1256 1292 1303 1158 1186 1211 1225 1191 1255 1288 1371 1171 1160 1000 826 777 743 749 898 856 762 617 485 343 236 155 37 1 0 0 0 0 0 0 0 0 0 0 0 0 0 0 0 0 0 0 0 0 0 0 96 122 136 0 156 330 269 256 339 373 315 451 392 304 229 260
1195 1260 1209 1039 969 1284 1522 1666 1820 2001 2045 1971 1911 1839 1721 1642 1449 1307 1369 1376 1352 1314 1308 1309 1363 1424 1291 1284 1345 1387 1143 1176 1044 856 731 843 845 756 660 527 505 356 244 120 53 31 1 0 0 0 0 0 0 0 0 0 0 0 0 0 0 0 0 0 0 0 0 0 0 0 0 0 0 221 70 116 117 110 215 273 372 419 442 366 238
1213 1302 1219 1052 901 1243 1471 1615 1762 1906 2020 1907 1939 1882 1831 1756 1522 1372 1421 1398 1406 1410 1327 1343 1452 1484 1374 1387 1378 1478 1264 1162 1070 867 774 731 811 692 616 514 364 323 187 39 0 0 0 0 0 0 0 0 0 0 0 0 0 0 0 0 0 0 0 0 0 0 0 0 0 0 0 0 0 49 39 16 22 18 30 84 148 273 220 220 210
1235 1232 1176 1082 988 1115 1478 1529 1706 1822 1910 1795 1829 1882 1876 1786 1621 1519 1476 1455 1445 1488 1362 1404 1540 1413 1579 1644 1524 1465 1442 1192 1066 948 810 736 729 667 595 449 299 249 199 116 7 1 0 0 0 0 0 0 0 0 0 0 0 0 0 0 0 0 0 0 0 0 0 0 0 0 0 0 0 1 4 12 8 11 11 15 26 36 60 85 74
894 1050 1080 1098 1078 998 1365 1480 1598 1751 1819 1760 1692 1738 1780 1792 1658 1598 1587 1547 1473 1384 1447 1504 1584 1624 1607 1686 1552 1519 1396 1210 1068 906 856 779 716 566 465 409 307 238 161 98 74 4 2 1 0 0 0 0 0 0 0 0 0 0 0 0 0 0 0 0 0 0 0 0 0 0 0 0 0 0 2 3 4 4 4 5 9 8 10 6 7
705 861 1005 1076 1091 1008 1206 1378 1501 1664 1745 1743 1651 1652 1666 1703 1609 1626 1585 1606 1536 1536 1512 1566 1606 1630 1666 1701 1640 1495 1315 1141 1034 983 828 742 706 571 435 344 290 246 141 39 6 1 3 2 0 0 0 0 0 0 0 0 0 0 0 0 0 0 0 0 0 0 0 0 0 0 0 0 0 0 0 0 0 1 0 1 4 6 7 3 2
644 735 915 1030 1105 1092 1040 1254 1416 1558 1661 1738 1654 1598 1598 1639 1571 1527 1494 1514 1506 1534 1546 1505 1571 1610 1541 1530 1471 1420 1260 1086 1006 926 826 700 662 531 408 324 265 182 100 23 0 2 4 2 0 0 0 0 0 0 0 0 0 0 0 0 0 0 0 0 0 0 0 0 0 0 0 0 0 0 0 0 0 0 0 0 2 3 1 2 4
526 723 870 988 1099 1157 1124 1093 1334 1436 1522 1632 1613 1580 1552 1587 1542 1485 1456 1462 1446 1486 1497 1466 1480 1500 1471 1433 1404 1386 1258 1056 850 829 710 492 399 300 293 279 172 43 48 0 0 0 2 0 0 0 0 0 0 0 0 0 0 0 0 0 0 0 0 0 0 0 0 0 0 0 0 0 0 0 0 0 0 0 0 0 0 0 0 1 2
443 623 809 921 1041 1122 1187 1133 1163 1338 1419 1468 1512 1500 1535 1540 1553 1479 1410 1422 1431 1433 1452 1435 1438 1436 1431 1402 1372 1354 1242 1077 818 712 599 500 430 350 272 211 90 45 14 0 0 0 0 0 0 0 0 0 0 0 0 0 0 0 0 0 0 0 0 0 0 0 0 0 0 0 0 0 0 0 0 0 0 0 0 0 0 0 0 0 0
0 440 565 813 915 1014 1078 1141 1124 1213 1336 1325 1365 1405 1428 1517 1527 1481 1428 1405 1418 1400 1382 1370 1362 1379 1359 1344 1354 1317 1236 1101 888 736 605 545 442 323 222 128 152 62 0 0 0 0 0 0 0 0 0 0 0 0 0 0 0 0 0 0 0 0 0 0 0 0 0 0 0 0 0 0 0 0 0 0 0 0 0 0 0 0 0 0 0
0 0 447 548 757 858 936 996 1034 1069 1178 1214 1203 1296 1355 1464 1445 1430 1417 1409 1409 1376 1335 1280 1282 1289 1294 1273 1293 1269 1230 1144 952 795 640 570 438 296 175 38 20 0 0 0 0 0 0 0 0 0 0 0 0 0 0 0 0 0 0 0 0 0 0 0 0 0 0 0 0 0 0 0 0 0 0 0 0 0 0 0 0 0 0 0 0
0 0 0 431 519 673 792 847 925 964 1007 1042 1035 1096 1240 1405 1419 1354 1376 1373 1365 1328 1276 1202 1159 1190 1226 1228 1232 1210 1188 1178 1038 834 684 590 475 277 73 3 6 2 0 0 0 0 0 0 0 0 0 0 0 0 0 0 0 0 0 0 0 0 0 0 0 0 0 0 0 0 0 0 0 0 0 0 0 0 0 0 0 0 0 0 0
0 0 0 0 402 447 564 669 722 804 880 954 936 918 1031 1198 1348 1287 1270 1353 1322 1283 1211 1110 1067 1070 1099 1156 1153 1133 1175 1151 1045 849 691 568 428 241 41 15 26 7 0 0 0 0 0 0 0 0 0 0 0 0 0 0 0 0 0 0 0 0 0 0 0 0 0 0 0 0 0 0 0 0 0 0 0 0 0 0 0 0 0 0 0
0 0 0 0 0 350 364 475 563 612 709 778 854 847 832 975 1169 1233 1207 1208 1241 1228 1166 1079 1042 1014 992 1010 1033 1051 1112 1078 974 763 616 486 296 138 87 66 30 0 0 0 0 0 0 0 0 0 0 0 0 0 0 0 0 0 0 0 0 0 0 0 0 0 0 0 0 0 0 0 0 0 0 0 0 0 0 0 0 0 0 0 0
0 0 0 0 0 0 277 291 424 537 560 594 658 719 732 756 875 1058 1150 1158 1155 1149 1094 1027 1003 969 923 916 892 941 1029 935 844 723 558 386 232 132 99 82 37 0 0 0 0 0 0 0 0 0 0 0 0 0 0 0 0 0 0 0 0 0 0 0 0 0 0 0 0 0 0 0 0 0 0 0 0 0 0 0 0 0 0 0 0
0 0 0 0 0 0 0 63 255 377 502 533 529 548 591 577 612 740 855 970 1089 1109 1014 863 806 807 801 789 772 829 880 824 648 547 441 273 165 122 95 48 27 0 0 0 0 0 0 0 0 0 0 0 0 0 0 0 0 0 0 0 0 0 0 0 0 0 0 0 0 0 0 0 0 0 0 0 0 0 0 0 0 0 0 0 0
0 0 0 0 0 0 0 0 0 0 348 484 517 494 466 469 486 534 615 698 898 982 909 738 628 607 594 551 539 716 774 654 532 431 332 242 176 108 68 43 20 7 0 0 0 0 0 0 0 0 0 0 0 0 0 0 0 0 0 0 0 0 0 0 0 0 0 0 0 0 0 0 0 0 0 0 1 0 0 0 0 0 0 0 0
0 0 0 0 0 0 0 0 0 0 0 133 412 461 462 448 463 509 556 656 744 788 757 660 526 443 410 364 410 605 636 552 472 403 324 233 140 72 48 39 13 0 0 0 0 0 0 0 0 0 0 0 0 0 0 0 0 0 0 0 0 0 0 0 0 0 0 0 0 0 0 0 0 0 0 0 0 0 0 0 0 0 0 0 0
0 0 0 0 0 0 0 0 0 0 0 0 0 288 393 423 427 469 553 605 641 616 547 461 387 334 288 289 364 548 594 486 442 388 258 185 122 100 57 27 1 0 0 0 0 0 0 0 0 0 0 0 0 0 0 0 0 0 0 0 0 0 0 0 0 0 0 0 0 0 0 0 0 0 0 0 0 0 0 0 0 0 0 0 0
0 0 0 0 0 0 0 0 0 0 0 0 0 0 0 314 347 357 404 444 476 499 478 421 369 162 224 209 287 429 523 498 407 340 244 181 141 108 69 21 0 0 0 0 0 0 0 0 0 0 0 0 0 0 0 0 0 0 0 0 0 0 0 0 0 0 0 0 0 0 0 0 0 0 0 0 0 0 0 0 0 0 0 0 0
0 0 0 0 0 0 0 0 0 0 0 0 0 0 0 0 0 203 198 238 391 426 416 386 358 193 258 223 217 274 316 364 361 319 291 239 181 128 72 21 0 0 0 0 0 0 0 0 0 0 0 0 0 0 0 0 0 0 0 0 0 0 0 0 0 0 0 0 0 0 0 0 0 0 0 0 0 0 0 0 0 1 1 7 4
0 0 0 0 0 0 0 0 0 0 0 0 0 0 0 0 0 40 186 225 290 361 379 354 330 334 357 359 326 284 258 266 286 272 256 235 198 148 65 8 0 0 0 0 0 0 0 0 0 0 0 0 0 0 0 0 0 0 0 0 0 0 0 0 0 0 0 0 0 0 0 0 0 0 0 0 0 0 0 0 0 0 0 0 0
0 0 0 0 0 0 0 0 0 0 0 0 0 0 0 28 124 164 196 215 205 198 301 310 316 330 338 331 335 358 355 342 309 264 203 181 143 92 38 2 0 0 0 0 0 0 0 0 0 0 0 0 0 0 0 0 0 0 0 0 0 0 0 0 0 0 0 0 0 0 0 0 0 0 0 0 0 0 0 0 0 0 0 0 3
0 0 0 0 0 0 0 0 0 0 0 0 0 0 0 1 46 83 109 106 118 126 143 138 174 213 218 222 208 209 220 240 246 244 211 152 106 72 0 0 0 0 0 0 0 0 0 0 0 0 0 0 0 0 0 0 0 0 0 0 0 0 0 0 0 0 0 0 0 0 0 0 0 0 0 0 0 0 0 0 0 0 0 0 13
0 0 0 0 0 0 0 0 0 0 0 0 0 0 0 0 8 15 17 16 18 22 39 58 64 63 71 76 77 106 131 149 161 152 142 118 85 54 27 7 0 0 0 0 0 0 0 0 0 0 0 0 0 0 0 0 0 0 0 0 0 0 0 0 0 0 0 0 0 0 0 0 0 0 0 0 0 0 0 0 0 0 0 0 0
0 0 0 0 0 0 0 0 0 0 0 0 0 0 0 0 0 5 8 10 13 18 22 18 22 33 38 54 62 60 58 85 98 75 55 48 49 41 26 21 15 11 6 0 0 0 0 0 0 0 0 0 0 0 0 0 0 0 0 0 0 0 0 0 0 0 0 0 0 0 0 0 0 0 0 0 0 0 0 0 0 0 0 0 0
0 0 0 0 0 0 0 0 0 0 0 0 0 0 0 0 0 0 5 10 15 19 21 20 19 20 24 17 18 22 32 42 62 78 62 46 36 32 27 26 29 30 25 15 4 0 0 0 0 0 0 0 0 0 0 0 0 0 0 0 0 0 0 0 0 0 0 0 0 0 0 0 0 0 0 0 0 0 0 0 0 0 0 0 0
0 0 0 0 0 0 0 0 0 0 0 0 0 0 0 0 0 0 1 4 6 12 13 19 22 23 26 28 32 26 23 29 39 46 66 70 59 51 48 46 47 43 36 31 22 9 1 0 0 0 0 0 0 0 0 0 0 0 0 0 0 0 0 0 0 0 0 0 0 0 0 0 0 0 0 0 0 0 0 0 0 0 0 0 0
0 0 0 0 0 0 0 0 0 0 0 0 0 0 0 0 0 0 0 0 0 1 4 5 9 7 7 15 22 29 31 27 25 32 36 36 36 48 63 61 52 39 30 27 27 26 22 12 6 2 0 0 0 0 0 0 0 0 0 0 0 0 0 0 0 0 0 0 0 0 0 0 0 0 0 0 0 0 0 0 0 0 0 0 0
0 0 0 0 0 0 0 0 0 0 0 0 0 0 0 0 0 0 0 0 0 0 0 0 0 1 1 2 2 5 12 15 18 16 14 14 13 11 16 22 29 49 45 37 37 35 30 22 13 5 2 0 0 0 0 0 0 0 0 0 0 0 0 0 0 0 0 0 0 0 0 0 0 0 0 0 0 0 0 0 0 0 0 0 0
0 0 0 0 0 0 0 0 0 0 0 0 0 0 0 0 0 0 0 0 0 0 0 0 0 0 0 0 0 0 0 0 0 0 1 3 3 2 1 3 9 18 31 32 24 19 17 14 16 13 6 2 1 0 0 0 0 0 0 0 0 0 0 0 0 0 0 0 0 0 0 0 0 0 0 0 0 0 0 0 0 0 0 0 0
0 0 0 0 0 0 0 0 0 0 0 0 0 0 0 0 0 0 0 0 0 0 0 0 0 0 0 0 0 0 0 0 0 0 0 0 0 0 0 1 6 9 8 7 12 15 20 20 17 15 12 6 3 0 0 0 0 0 0 0 0 0 0 0 0 0 0 0 0 0 0 0 0 0 0 0 0 0 0 0 0 0 0 0 0
0 0 0 0 0 0 0 0 0 0 0 0 0 0 0 0 0 0 0 0 0 0 0 0 0 0 0 0 0 0 0 0 0 0 0 0 0 0 0 0 0 1 2 3 3 3 7 9 12 13 12 11 8 3 1 0 0 0 0 0 0 0 0 0 0 0 0 0 0 0 0 0 0 0 0 0 0 0 0 0 0 0 0 0 0
0 0 0 0 0 0 0 0 0 0 0 0 0 0 0 0 0 0 0 0 0 0 0 0 0 0 0 0 0 0 0 0 0 0 0 0 0 0 0 0 0 0 0 1 2 5 3 7 7 5 7 5 5 2 1 0 0 0 0 0 0 0 0 0 0 0 0 0 0 0 0 0 0 0 0 0 0 0 0 0 0 0 0 0 0
0 0 0 0 0 0 0 0 0 0 0 0 0 0 0 0 0 0 0 0 0 0 0 0 0 0 0 0 0 0 0 0 0 0 0 0 0 0 0 0 0 0 0 0 0 1 1 5 4 3 5 4 2 2 1 0 0 0 0 0 0 0 0 0 0 0 0 0 0 0 0 0 0 0 0 0 0 0 0 0 0 0 0 0 0
0 0 0 0 0 0 0 0 0 0 0 0 0 0 0 0 0 0 0 0 0 0 0 0 0 0 0 0 0 0 0 0 0 0 0 0 0 0 0 0 0 0 0 0 0 0 1 2 3 4 3 3 2 0 1 0 0 0 0 0 0 0 0 0 0 0 0 0 0 0 0 0 0 0 0 0 0 0 0 0 0 0 0 0 0
0 0 0 0 0 0 0 0 0 0 0 0 0 0 0 0 0 0 0 0 0 0 0 0 0 0 0 0 0 0 0 0 0 0 0 0 0 0 0 0 0 0 0 0 0 0 0 0 1 1 1 2 2 1 0 1 0 0 0 0 0 0 0 0 0 0 0 0 0 0 0 0 0 0 0 0 0 0 0 0 0 0 0 0 0
0 0 0 0 0 0 0 0 0 0 0 0 0 0 0 0 0 0 0 0 0 0 0 0 0 0 0 0 0 0 0 0 0 0 0 0 0 0 0 0 0 0 0 0 0 0 0 0 0 0 0 0 0 0 0 0 0 0 0 0 0 0 0 0 0 0 0 0 0 0 0 0 0 0 0 0 0 0 0 0 0 0 0 0 0
0 0 0 0 0 0 0 0 0 0 0 0 0 0 0 0 0 0 0 0 0 0 0 0 0 0 0 0 0 0 0 0 0 0 0 0 0 0 0 0 0 0 0 0 0 0 0 0 0 0 0 0 1 1 0 0 0 0 0 0 0 0 0 0 0 0 0 0 0 0 0 0 0 0 0 0 0 0 0 0 0 0 0 0 0
0 0 0 0 0 0 0 0 0 0 0 0 0 0 0 0 0 0 0 0 0 0 0 0 0 0 0 0 0 0 0 0 0 0 0 0 0 0 0 0 0 0 0 0 0 0 0 0 0 0 0 0 0 1 0 0 0 0 0 0 0 0 0 0 0 0 0 0 0 0 0 0 0 0 0 0 0 0 0 0 0 0 0 0 0
Wind_Speed
11 15 14 18 18 17 17 19 18 16 14 13 12 13 15 16 18 19 18 17 17 18 19 20 20 19 20 20 20 20 20 19 18 18 18 18 18 16 15 15 15 16 17 17 19 20 22 24 26 26 26 nan nan nan nan nan nan nan nan nan nan nan nan nan 22 21 21 21 21 20 19 19 18 18 18 19 20 20 19 17 14 10 9 12 15
15 14 14 15 20 19 19 18 18 17 16 15 13 13 13 14 16 17 18 18 18 18 18 20 20 19 19 20 21 21 21 20 19 18 17 17 16 15 15 14 13 13 14 19 19 21 24 27 28 28 28 29 nan nan nan nan nan nan nan nan nan nan nan nan 20 20 nan 18 17 17 16 18 18 17 17 18 19 19 17 17 17 11 9 15 15
14 13 13 15 20 20 19 19 18 17 17 16 15 14 13 12 14 15 15 18 18 18 18 20 20 20 20 20 21 21 21 20 20 19 18 17 16 15 15 14 14 13 17 16 20 21 24 27 30 29 28 nan nan nan nan nan nan nan nan nan nan nan nan nan 20 19 nan nan nan 15 15 16 18 17 17 18 19 19 17 16 16 15 12 16 15
15 13 12 15 19 19 20 20 19 18 16 15 13 13 14 14 13 13 14 16 16 17 18 19 19 19 20 19 20 20 20 20 20 20 18 17 16 16 15 14 15 17 16 17 20 21 22 25 28 27 nan nan nan nan nan nan nan nan nan nan nan nan nan nan nan 18 nan nan nan nan 12 nan 13 18 19 19 20 20 19 18 18 19 18 17 17
15 13 13 13 14 16 18 19 20 19 17 16 14 14 14 14 14 13 13 14 14 16 17 18 18 19 20 19 19 19 19 19 19 18 18 17 16 16 16 16 15 16 18 19 20 21 21 23 24 24 nan nan nan nan nan nan nan nan nan nan nan nan nan nan nan nan nan nan nan nan nan 12 13 17 20 21 20 20 19 20 21 20 20 20 19
15 14 14 13 13 13 17 18 19 20 18 18 18 16 15 14 14 13 13 13 13 14 15 16 17 18 19 19 19 18 19 19 19 18 17 16 16 16 16 16 16 17 19 19 20 20 20 21 22 nan nan nan nan nan nan nan nan nan nan nan nan nan nan nan nan nan nan nan nan nan nan nan 12 14 22 22 21 21 20 22 22 22 22 21 20
17 15 15 15 13 14 17 17 18 18 18 18 19 19 17 16 14 14 12 12 13 13 14 14 16 17 17 18 18 18 18 18 18 18 18 16 15 15 16 16 17 18 19 19 19 20 20 20 nan nan nan nan nan nan nan nan nan nan nan nan nan nan nan nan nan nan nan nan nan 15 15 14 14 14 20 21 21 22 22 22 22 23 23 22 22
14 15 16 15 14 16 19 18 18 18 18 17 18 18 18 18 16 15 13 12 12 12 13 13 15 16 16 17 16 17 16 16 16 17 17 17 15 15 16 16 17 19 19 20 21 21 20 nan nan nan nan nan nan nan nan nan nan nan nan nan nan nan nan nan nan nan nan nan nan 16 16 15 15 15 19 20 20 22 23 23 23 nan nan 24 21
16 16 16 16 14 20 20 20 19 20 20 18 17 17 18 18 17 15 15 14 13 13 13 12 13 14 15 15 16 15 15 15 16 15 15 15 15 15 16 16 17 18 18 20 20 20 19 nan nan nan nan nan nan nan nan nan nan nan nan nan nan nan nan nan nan nan nan nan nan 18 17 16 16 16 19 20 22 23 24 22 23 nan nan 24 22
15 16 17 16 16 21 21 21 21 20 22 20 19 17 19 17 17 17 16 15 14 14 13 12 12 12 13 14 14 15 15 15 15 15 15 14 15 15 16 17 17 16 18 18 18 18 nan nan nan nan nan nan nan nan nan nan nan nan nan nan nan nan nan nan nan nan nan nan nan 18 17 18 15 17 20 24 24 26 24 22 nan nan 20 20 23
16 16 16 17 18 22 23 22 22 21 22 20 20 19 20 19 17 17 16 15 15 15 14 13 13 12 12 11 12 13 14 14 15 15 15 14 15 16 16 17 17 15 15 16 15 nan nan nan nan nan nan nan nan nan nan nan nan nan nan nan nan nan nan nan nan nan nan nan 20 18 18 18 16 17 23 25 26 25 24 21 19 22 nan nan nan
17 16 16 16 19 24 24 23 23 21 21 20 20 20 20 20 20 19 17 16 15 15 15 14 13 12 11 11 10 11 12 13 15 16 15 15 15 18 18 16 17 15 15 14 15 nan nan nan nan nan nan nan nan nan nan nan nan nan nan nan nan nan nan nan nan nan nan nan nan nan 17 16 nan 17 24 25 25 25 24 22 22 20 22 25 26
18 17 16 16 17 22 24 24 23 22 22 21 21 20 21 21 20 19 19 18 17 15 14 13 11 10 11 10 10 12 12 13 15 17 17 16 16 19 18 17 17 17 17 17 nan nan nan nan nan nan nan nan nan nan nan nan nan nan nan nan nan nan nan nan nan nan nan nan nan nan nan nan nan 18 nan 24 23 25 26 25 24 22 21 25 26
18 18 17 17 17 21 24 23 23 23 22 22 21 21 21 20 20 20 20 19 18 17 16 14 11 10 10 9 9 14 14 13 15 17 18 18 18 18 19 18 17 17 18 nan nan nan nan nan nan nan nan nan nan nan nan nan nan nan nan nan nan nan nan nan nan nan nan nan nan nan nan nan nan nan nan nan nan nan nan nan 26 27 25 25 25
20 18 18 17 17 18 23 23 23 23 22 22 22 21 21 21 21 20 20 19 18 18 18 16 14 13 11 9 9 14 14 15 14 17 18 19 19 19 18 18 17 17 18 17 nan nan nan nan nan nan nan nan nan nan nan nan nan nan nan nan nan nan nan nan nan nan nan nan nan nan nan nan nan nan nan nan nan nan nan nan nan nan nan nan nan
19 19 18 17 17 18 18 20 22 22 22 22 22 22 21 21 20 20 20 19 18 18 17 17 17 15 14 12 11 15 14 15 15 16 19 20 19 20 20 19 18 17 15 nan nan nan nan nan nan nan nan nan nan nan nan nan nan nan nan nan nan nan nan nan nan nan nan nan nan nan nan nan nan nan nan nan nan nan nan nan nan nan nan nan nan
19 19 20 18 18 17 18 18 19 22 21 21 21 22 21 21 21 21 20 19 18 18 18 17 17 17 16 15 15 18 16 16 14 16 19 20 20 21 21 20 20 19 15 nan nan nan nan nan nan nan nan nan nan nan nan nan nan nan nan nan nan nan nan nan nan nan nan nan nan nan nan nan nan nan nan nan nan nan nan nan nan nan nan nan nan
19 19 20 20 19 18 18 18 18 18 18 19 20 21 20 20 21 21 20 20 19 19 18 17 16 16 16 16 17 20 20 19 18 18 21 21 20 21 21 20 19 14 nan nan nan nan nan nan nan nan nan nan nan nan nan nan nan nan nan nan nan nan nan nan nan nan nan nan nan nan nan nan nan nan nan nan nan nan nan nan nan nan nan nan nan
17 18 19 21 20 20 19 19 18 18 18 18 17 18 21 20 20 20 20 20 19 19 18 17 16 15 16 16 17 21 21 22 23 23 23 24 23 22 21 20 18 nan nan nan nan nan nan nan nan nan nan nan nan nan nan nan nan nan nan nan nan nan nan nan nan nan nan nan nan nan nan nan nan nan nan nan nan nan nan nan nan nan nan nan nan
16 16 18 18 21 21 20 20 19 19 18 18 18 18 18 20 20 20 19 19 19 18 19 18 17 16 15 16 17 19 20 21 23 23 25 27 26 24 23 21 nan nan nan nan nan nan nan nan nan nan nan nan nan nan nan nan nan nan nan nan nan nan nan nan nan nan nan nan nan nan nan nan nan nan nan nan nan nan nan nan nan nan nan nan nan
nan 14 16 17 19 21 21 20 19 19 19 19 18 18 18 19 18 19 20 20 19 19 18 19 18 16 16 16 17 17 17 18 20 20 24 24 26 27 25 23 22 nan nan nan nan nan nan nan nan nan nan nan nan nan nan nan nan nan nan nan nan nan nan nan nan nan nan nan nan nan nan nan nan nan nan nan nan nan nan nan nan nan nan nan nan
nan nan 14 16 19 19 21 21 20 19 19 19 19 19 19 19 19 19 19 19 19 19 19 19 18 17 16 16 16 16 17 18 18 20 20 22 24 26 25 nan nan nan nan nan nan nan nan nan nan nan nan nan nan nan nan nan nan nan nan nan nan nan nan nan nan nan nan nan nan nan nan nan nan nan nan nan nan nan nan nan nan nan nan nan nan
nan nan nan 17 18 20 20 21 21 21 21 20 20 20 20 21 20 20 20 20 21 21 21 21 21 19 18 18 18 17 17 18 19 20 20 21 21 23 nan nan nan nan nan nan nan nan nan nan nan nan nan nan nan nan nan nan nan nan nan nan nan nan nan nan nan nan nan nan nan nan nan nan nan nan nan nan nan nan nan nan nan nan nan nan nan
nan nan nan nan 18 19 20 21 22 22 22 21 21 21 21 21 21 21 22 22 22 22 23 23 23 23 22 21 21 19 19 19 20 23 23 22 21 21 nan nan nan nan nan nan nan nan nan nan nan nan nan nan nan nan nan nan nan nan nan nan nan nan nan nan nan nan nan nan nan nan nan nan nan nan nan nan nan nan nan nan nan nan nan nan nan
nan nan nan nan nan 19 19 19 21 21 22 21 21 21 21 21 22 22 22 23 23 23 23 24 24 25 25 24 24 23 23 22 23 23 23 24 24 22 nan nan nan nan nan nan nan nan nan nan nan nan nan nan nan nan nan nan nan nan nan nan nan nan nan nan nan nan nan nan nan nan nan nan nan nan nan nan nan nan nan nan nan nan nan nan nan
nan nan nan nan nan nan 20 20 21 21 22 22 21 21 22 21 21 22 23 23 24 23 24 25 26 26 27 26 27 26 26 26 25 25 26 26 26 25 nan nan nan nan nan nan nan nan nan nan nan nan nan nan nan nan nan nan nan nan nan nan nan nan nan nan nan nan nan nan nan nan nan nan nan nan nan nan nan nan nan nan nan nan nan nan nan
nan nan nan nan nan nan nan nan 20 21 21 22 23 24 23 22 22 23 23 23 24 24 24 25 26 27 28 28 28 27 28 28 28 28 28 29 28 28 nan nan nan nan nan nan nan nan nan nan nan nan nan nan nan nan nan nan nan nan nan nan nan nan nan nan nan nan nan nan nan nan nan nan nan nan nan nan nan nan nan nan nan nan nan nan nan
nan nan nan nan nan nan nan nan nan nan 20 22 23 24 23 24 24 25 24 24 25 25 25 25 27 27 28 28 27 28 29 29 29 29 30 31 30 31 nan nan nan nan nan nan nan nan nan nan nan nan nan nan nan nan nan nan nan nan nan nan nan nan nan nan nan nan nan nan nan nan nan nan nan nan nan nan nan nan nan nan nan nan nan nan nan
nan nan nan nan nan nan nan nan nan nan nan 24 22 23 24 24 25 26 25 27 26 25 26 27 27 28 28 29 28 27 28 29 29 29 33 31 33 nan nan nan nan nan nan nan nan nan nan nan nan nan nan nan nan nan nan nan nan nan nan nan nan nan nan nan nan nan nan nan nan nan nan nan nan nan nan nan nan nan nan nan nan nan nan nan nan
nan nan nan nan nan nan nan nan nan nan nan nan nan 26 25 26 25 26 27 29 27 28 29 28 28 29 29 29 28 28 28 29 29 31 32 32 34 nan nan nan nan nan nan nan nan nan nan nan nan nan nan nan nan nan nan nan nan nan nan nan nan nan nan nan nan nan nan nan nan nan nan nan nan nan nan nan nan nan nan nan nan nan nan nan nan
nan nan nan nan nan nan nan nan nan nan nan nan nan nan nan 27 27 28 29 29 29 31 30 30 30 30 30 30 30 29 30 30 30 31 31 33 34 35 nan nan nan nan nan nan nan nan nan nan nan nan nan nan nan nan nan nan nan nan nan nan nan nan nan nan nan nan nan nan nan nan nan nan nan nan nan nan nan nan nan nan nan nan nan nan nan
nan nan nan nan nan nan nan nan nan nan nan nan nan nan nan nan nan 31 30 30 32 31 31 31 31 31 32 32 31 31 32 31 31 31 32 33 33 34 nan nan nan nan nan nan nan nan nan nan nan nan nan nan nan nan nan nan nan nan nan nan nan nan nan nan nan nan nan nan nan nan nan nan nan nan nan nan nan nan nan nan nan nan nan nan nan
nan nan nan nan nan nan nan nan nan nan nan nan nan nan nan nan nan nan 32 33 33 33 32 31 31 32 33 33 33 33 33 33 32 33 33 34 34 34 nan nan nan nan nan nan nan nan nan nan nan nan nan nan nan nan nan nan nan nan nan nan nan nan nan nan nan nan nan nan nan nan nan nan nan nan nan nan nan nan nan nan nan nan nan nan nan
nan nan nan nan nan nan nan nan nan nan nan nan nan nan nan nan 33 33 34 34 33 33 32 32 32 32 32 32 33 34 34 35 36 35 36 36 35 nan nan nan nan nan nan nan nan nan nan nan nan nan nan nan nan nan nan nan nan nan nan nan nan nan nan nan nan nan nan nan nan nan nan nan nan nan nan nan nan nan nan nan nan nan nan nan nan
nan nan nan nan nan nan nan nan nan nan nan nan nan nan nan nan nan nan 33 33 33 33 33 33 33 32 33 33 33 34 34 36 37 38 38 38 38 nan nan nan nan nan nan nan nan nan nan nan nan nan nan nan nan nan nan nan nan nan nan nan nan nan nan nan nan nan nan nan nan nan nan nan nan nan nan nan nan nan nan nan nan nan nan nan nan
nan nan nan nan nan nan nan nan nan nan nan nan nan nan nan nan nan nan nan nan nan nan nan nan nan nan nan nan nan 35 36 37 37 39 39 39 nan nan nan nan nan nan nan nan nan nan nan nan nan nan nan nan nan nan nan nan nan nan nan nan nan nan nan nan nan nan nan nan nan nan nan nan nan nan nan nan nan nan nan nan nan nan nan nan nan
nan nan nan nan nan nan nan nan nan nan nan nan nan nan nan nan nan nan nan nan nan nan nan nan nan nan nan nan nan nan nan nan nan nan nan nan nan nan nan nan nan nan nan nan nan nan nan nan nan nan nan nan nan nan nan nan nan nan nan nan nan nan nan nan nan nan nan nan nan nan nan nan nan nan nan nan nan nan nan nan nan nan nan nan nan
nan nan nan nan nan nan nan nan nan nan nan nan nan nan nan nan nan nan nan nan nan nan nan nan nan nan nan nan nan nan nan nan nan nan nan nan nan nan nan nan nan nan nan nan nan nan nan nan nan nan nan nan nan nan nan nan nan nan nan nan nan nan nan nan nan nan nan nan nan nan nan nan nan nan nan nan nan nan nan nan nan nan nan nan nan
nan nan nan nan nan nan nan nan nan nan nan nan nan nan nan nan nan nan nan nan nan nan nan nan nan nan nan nan nan nan nan nan nan nan nan nan nan nan nan nan nan nan nan nan nan nan nan nan nan nan nan nan nan nan nan nan nan nan nan nan nan nan nan nan nan nan nan nan nan nan nan nan nan nan nan nan nan nan nan nan nan nan nan nan nan
nan nan nan nan nan nan nan nan nan nan nan nan nan nan nan nan nan nan nan nan nan nan nan nan nan nan nan nan nan nan nan nan nan nan nan nan nan nan nan nan nan nan nan nan nan nan nan nan nan nan nan nan nan nan nan nan nan nan nan nan nan nan nan nan nan nan nan nan nan nan nan nan nan nan nan nan nan nan nan nan nan nan nan nan nan
nan nan nan nan nan nan nan nan nan nan nan nan nan nan nan nan nan nan nan nan nan nan nan nan nan nan nan nan nan nan nan nan nan nan nan nan nan nan nan nan nan nan nan nan nan nan nan nan nan nan nan nan nan nan nan nan nan nan nan nan nan nan nan nan nan nan nan nan nan nan nan nan nan nan nan nan nan nan nan nan nan nan nan nan nan
nan nan nan nan nan nan nan nan nan nan nan nan nan nan nan nan nan nan nan nan nan nan nan nan nan nan nan nan nan nan nan nan nan nan nan nan nan nan nan nan nan nan nan nan nan nan nan nan nan nan nan nan nan nan nan nan nan nan nan nan nan nan nan nan nan nan nan nan nan nan nan nan nan nan nan nan nan nan nan nan nan nan nan nan nan
nan nan nan nan nan nan nan nan nan nan nan nan nan nan nan nan nan nan nan nan nan nan nan nan nan nan nan nan nan nan nan nan nan nan nan nan nan nan nan nan nan nan nan nan nan nan nan nan nan nan nan nan nan nan nan nan nan nan nan nan nan nan nan nan nan nan nan nan nan nan nan nan nan nan nan nan nan nan nan nan nan nan nan nan nan
nan nan nan nan nan nan nan nan nan nan nan nan nan nan nan nan nan nan nan nan nan nan nan nan nan nan nan nan nan nan nan nan nan nan nan nan nan nan nan nan nan nan nan nan nan nan nan nan nan nan nan nan nan nan nan nan nan nan nan nan nan nan nan nan nan nan nan nan nan nan nan nan nan nan nan nan nan nan nan nan nan nan nan nan nan
nan nan nan nan nan nan nan nan nan nan nan nan nan nan nan nan nan nan nan nan nan nan nan nan nan nan nan nan nan nan nan nan nan nan nan nan nan nan nan nan nan nan nan nan nan nan nan nan nan nan nan nan nan nan nan nan nan nan nan nan nan nan nan nan nan nan nan nan nan nan nan nan nan nan nan nan nan nan nan nan nan nan nan nan nan
nan nan nan nan nan nan nan nan nan nan nan nan nan nan nan nan nan nan nan nan nan nan nan nan nan nan nan nan nan nan nan nan nan nan nan nan nan nan nan nan nan nan nan nan nan nan nan nan nan nan nan nan nan nan nan nan nan nan nan nan nan nan nan nan nan nan nan nan nan nan nan nan nan nan nan nan nan nan nan nan nan nan nan nan nan
nan nan nan nan nan nan nan nan nan nan nan nan nan nan nan nan nan nan nan nan nan nan nan nan nan nan nan nan nan nan nan nan nan nan nan nan nan nan nan nan nan nan nan nan nan nan nan nan nan nan nan nan nan nan nan nan nan nan nan nan nan nan nan nan nan nan nan nan nan nan nan nan nan nan nan nan nan nan nan nan nan nan nan nan nan
nan nan nan nan nan nan nan nan nan nan nan nan nan nan nan nan nan nan nan nan nan nan nan nan nan nan nan nan nan nan nan nan nan nan nan nan nan nan nan nan nan nan nan nan nan nan nan nan nan nan nan nan nan nan nan nan nan nan nan nan nan nan nan nan nan nan nan nan nan nan nan nan nan nan nan nan nan nan nan nan nan nan nan nan nan
nan nan nan nan nan nan nan nan nan nan nan nan nan nan nan nan nan nan nan nan nan nan nan nan nan nan nan nan nan nan nan nan nan nan nan nan nan nan nan nan nan nan nan nan nan nan nan nan nan nan nan nan nan nan nan nan nan nan nan nan nan nan nan nan nan nan nan nan nan nan nan nan nan nan nan nan nan nan nan nan nan nan nan nan nan
nan nan nan nan nan nan nan nan nan nan nan nan nan nan nan nan nan nan nan nan nan nan nan nan nan nan nan nan nan nan nan nan nan nan nan nan nan nan nan nan nan nan nan nan nan nan nan nan nan nan nan nan nan nan nan nan nan nan nan nan nan nan nan nan nan nan nan nan nan nan nan nan nan nan nan nan nan nan nan nan nan nan nan nan nan
nan nan nan nan nan nan nan nan nan nan nan nan nan nan nan nan nan nan nan nan nan nan nan nan nan nan nan nan nan nan nan nan nan nan nan nan nan nan nan nan nan nan nan nan nan nan nan nan nan nan nan nan nan nan nan nan nan nan nan nan nan nan nan nan nan nan nan nan nan nan nan nan nan nan nan nan nan nan nan nan nan nan nan nan nan
Wind_Direction
18 3 10 10 11 17 10 10 5 1 0 353 337 317 303 297 292 290 286 277 267 264 263 265 267 271 278 283 284 282 281 276 273 268 265 263 262 264 261 263 261 259 259 262 251 244 248 248 248 245 242 nan nan nan nan nan nan nan nan nan nan nan nan nan 243 243 243 256 266 266 268 272 273 274 273 269 264 261 258 256 252 250 252 259 258
352 358 360 5 3 5 4 5 4 0 358 356 347 334 321 306 295 288 289 286 279 271 266 266 268 270 276 281 283 285 284 283 280 276 272 267 264 264 264 264 264 262 259 261 263 252 247 249 250 250 249 247 nan nan nan nan nan nan nan nan nan nan nan nan 240 243 nan 242 242 249 258 268 271 274 275 271 266 262 258 257 256 253 253 260 259
330 342 350 358 357 359 358 358 359 358 358 356 350 342 332 317 304 293 283 285 285 279 272 269 269 272 274 278 281 283 284 284 282 281 281 277 270 267 267 263 265 266 267 271 270 266 259 256 255 255 254 nan nan nan nan nan nan nan nan nan nan nan nan nan 238 238 nan nan nan 240 244 261 269 272 273 271 269 266 262 258 257 257 260 260 262
336 342 343 349 353 354 355 353 353 354 353 354 349 344 337 330 322 308 294 290 286 283 279 275 275 277 277 276 278 280 281 281 280 279 279 276 273 266 264 263 265 265 272 276 276 274 268 262 259 259 nan nan nan nan nan nan nan nan nan nan nan nan nan nan nan 237 nan nan nan nan 253 nan 260 271 270 270 270 270 268 266 264 264 263 261 260
345 343 344 343 344 349 353 349 348 349 346 345 344 343 341 336 329 322 315 304 294 286 283 281 281 281 280 278 277 278 279 280 279 279 279 277 274 268 263 263 267 271 276 279 279 277 274 268 264 261 nan nan nan nan nan nan nan nan nan nan nan nan nan nan nan nan nan nan nan nan nan 255 261 270 270 270 271 272 273 272 269 267 265 264 264
353 351 351 347 341 341 348 347 344 344 342 340 342 340 342 340 336 332 328 316 309 297 293 289 289 286 284 284 282 279 280 281 280 280 278 277 276 271 267 269 274 278 279 280 278 277 273 270 267 nan nan nan nan nan nan nan nan nan nan nan nan nan nan nan nan nan nan nan nan nan nan nan 255 263 273 273 273 272 273 274 273 270 267 265 263
354 357 356 355 349 344 344 345 339 338 338 337 339 339 337 338 339 337 335 325 318 312 305 304 297 293 290 287 286 285 285 287 287 285 282 278 276 273 272 275 278 280 278 277 276 273 270 267 nan nan nan nan nan nan nan nan nan nan nan nan nan nan nan nan nan nan nan nan nan 262 260 256 257 259 268 268 272 273 272 273 271 269 268 267 265
353 357 359 358 357 356 350 348 340 334 334 334 334 334 334 335 335 339 336 330 328 321 316 314 305 301 295 293 291 290 288 287 287 286 286 284 279 276 276 277 279 278 277 275 271 267 265 nan nan nan nan nan nan nan nan nan nan nan nan nan nan nan nan nan nan nan nan nan nan 259 261 258 258 258 270 272 272 273 271 268 270 nan nan 267 260
355 357 356 357 0 359 358 355 348 339 336 331 328 328 334 334 331 335 336 333 334 330 326 321 314 307 302 297 295 294 292 291 290 288 286 285 284 282 280 279 280 280 280 276 272 268 264 nan nan nan nan nan nan nan nan nan nan nan nan nan nan nan nan nan nan nan nan nan nan 259 261 260 258 258 266 273 269 266 261 257 261 nan nan 263 263
352 353 355 354 358 360 0 360 356 348 345 334 327 325 331 327 328 333 336 334 335 332 331 331 324 317 307 302 301 299 297 295 292 290 286 284 283 282 283 285 284 286 281 276 271 266 nan nan nan nan nan nan nan nan nan nan nan nan nan nan nan nan nan nan nan nan nan nan nan 255 257 259 257 262 270 270 269 261 256 258 nan nan 263 264 264
340 348 349 352 355 357 359 360 358 354 352 342 335 328 330 326 324 330 333 335 334 331 332 332 334 328 317 312 309 305 301 299 297 290 288 286 285 279 279 283 288 284 276 273 267 nan nan nan nan nan nan nan nan nan nan nan nan nan nan nan nan nan nan nan nan nan nan nan 255 251 249 251 260 264 268 270 269 265 260 258 261 267 nan nan nan
334 338 342 344 350 354 357 357 357 356 354 349 344 338 334 328 325 327 328 331 332 331 330 333 331 329 323 320 320 308 304 301 297 293 291 286 286 281 277 278 273 270 258 261 264 nan nan nan nan nan nan nan nan nan nan nan nan nan nan nan nan nan nan nan nan nan nan nan nan nan 253 251 nan 265 268 269 269 271 269 266 264 269 274 272 272
327 329 333 333 338 348 351 353 353 355 354 351 349 345 342 337 331 327 323 325 325 327 326 324 321 316 316 320 321 312 308 305 302 297 294 291 287 287 284 280 273 266 259 250 nan nan nan nan nan nan nan nan nan nan nan nan nan nan nan nan nan nan nan nan nan nan nan nan nan nan nan nan nan 269 nan 264 265 264 262 261 265 266 271 277 274
319 321 322 325 328 340 344 346 347 349 351 350 349 348 347 342 340 335 329 324 321 319 322 318 309 309 313 313 314 302 303 304 310 302 299 295 291 286 287 287 281 274 271 nan nan nan nan nan nan nan nan nan nan nan nan nan nan nan nan nan nan nan nan nan nan nan nan nan nan nan nan nan nan nan nan nan nan nan nan nan 258 261 263 264 265
314 315 314 314 318 326 338 339 340 343 344 345 346 348 349 346 345 341 340 332 326 317 318 314 307 311 303 300 298 301 303 305 312 305 302 297 293 287 288 288 286 277 274 274 nan nan nan nan nan nan nan nan nan nan nan nan nan nan nan nan nan nan nan nan nan nan nan nan nan nan nan nan nan nan nan nan nan nan nan nan nan nan nan nan nan
303 308 305 307 307 311 321 329 333 335 337 339 340 343 346 345 345 341 341 339 336 330 322 312 307 302 303 300 299 297 306 309 312 309 302 295 294 288 286 285 283 280 277 nan nan nan nan nan nan nan nan nan nan nan nan nan nan nan nan nan nan nan nan nan nan nan nan nan nan nan nan nan nan nan nan nan nan nan nan nan nan nan nan nan nan
293 297 302 304 302 304 311 314 321 329 330 331 333 336 339 340 341 341 341 339 339 334 330 323 315 308 302 297 293 294 294 300 307 302 297 291 291 286 285 286 287 287 279 nan nan nan nan nan nan nan nan nan nan nan nan nan nan nan nan nan nan nan nan nan nan nan nan nan nan nan nan nan nan nan nan nan nan nan nan nan nan nan nan nan nan
292 294 300 300 301 301 304 305 310 314 315 322 327 330 332 333 335 336 336 336 337 335 333 330 326 319 310 300 292 292 294 295 299 297 293 285 281 280 283 286 287 279 nan nan nan nan nan nan nan nan nan nan nan nan nan nan nan nan nan nan nan nan nan nan nan nan nan nan nan nan nan nan nan nan nan nan nan nan nan nan nan nan nan nan nan
290 295 294 299 303 300 304 303 305 307 310 307 306 318 326 326 326 328 329 330 331 331 331 327 325 320 314 306 298 296 293 295 293 293 287 284 281 280 280 282 283 nan nan nan nan nan nan nan nan nan nan nan nan nan nan nan nan nan nan nan nan nan nan nan nan nan nan nan nan nan nan nan nan nan nan nan nan nan nan nan nan nan nan nan nan
290 294 298 301 301 303 302 304 305 308 306 303 304 303 314 320 319 320 321 320 323 323 323 322 321 319 314 308 303 301 299 295 297 291 290 288 286 280 280 274 nan nan nan nan nan nan nan nan nan nan nan nan nan nan nan nan nan nan nan nan nan nan nan nan nan nan nan nan nan nan nan nan nan nan nan nan nan nan nan nan nan nan nan nan nan
nan 298 302 303 299 303 306 304 305 306 304 300 297 299 302 309 306 311 314 313 311 313 312 311 311 310 308 305 302 298 293 290 297 288 292 285 286 285 281 277 275 nan nan nan nan nan nan nan nan nan nan nan nan nan nan nan nan nan nan nan nan nan nan nan nan nan nan nan nan nan nan nan nan nan nan nan nan nan nan nan nan nan nan nan nan
nan nan 304 302 302 304 308 310 305 309 304 298 291 288 288 298 295 291 292 297 298 297 293 286 288 283 296 294 287 289 290 289 290 291 287 286 287 290 285 nan nan nan nan nan nan nan nan nan nan nan nan nan nan nan nan nan nan nan nan nan nan nan nan nan nan nan nan nan nan nan nan nan nan nan nan nan nan nan nan nan nan nan nan nan nan
nan nan nan 311 310 309 307 311 312 309 308 303 295 291 289 287 291 290 286 289 286 285 278 278 273 274 273 276 277 280 284 285 286 287 284 288 286 293 nan nan nan nan nan nan nan nan nan nan nan nan nan nan nan nan nan nan nan nan nan nan nan nan nan nan nan nan nan nan nan nan nan nan nan nan nan nan nan nan nan nan nan nan nan nan nan
nan nan nan nan 310 314 318 316 316 313 311 308 302 297 294 290 288 286 284 282 281 279 275 273 270 270 270 270 271 273 276 276 282 292 287 282 282 288 nan nan nan nan nan nan nan nan nan nan nan nan nan nan nan nan nan nan nan nan nan nan nan nan nan nan nan nan nan nan nan nan nan nan nan nan nan nan nan nan nan nan nan nan nan nan nan
nan nan nan nan nan 317 311 314 311 311 313 311 310 305 298 292 289 287 285 282 278 276 275 273 271 270 268 267 268 268 268 270 272 274 276 276 276 275 nan nan nan nan nan nan nan nan nan nan nan nan nan nan nan nan nan nan nan nan nan nan nan nan nan nan nan nan nan nan nan nan nan nan nan nan nan nan nan nan nan nan nan nan nan nan nan
nan nan nan nan nan nan 310 307 308 310 313 312 312 305 300 299 294 290 285 281 280 276 273 271 269 269 266 265 265 266 265 266 267 269 270 272 273 273 nan nan nan nan nan nan nan nan nan nan nan nan nan nan nan nan nan nan nan nan nan nan nan nan nan nan nan nan nan nan nan nan nan nan nan nan nan nan nan nan nan nan nan nan nan nan nan
nan nan nan nan nan nan nan nan 302 302 306 303 301 300 304 304 300 294 291 284 279 278 275 272 271 269 268 265 264 264 264 264 264 265 267 266 268 269 nan nan nan nan nan nan nan nan nan nan nan nan nan nan nan nan nan nan nan nan nan nan nan nan nan nan nan nan nan nan nan nan nan nan nan nan nan nan nan nan nan nan nan nan nan nan nan
nan nan nan nan nan nan nan nan nan nan 288 288 291 295 296 297 299 295 295 291 284 280 276 273 271 271 269 267 266 264 264 263 263 264 264 263 265 265 nan nan nan nan nan nan nan nan nan nan nan nan nan nan nan nan nan nan nan nan nan nan nan nan nan nan nan nan nan nan nan nan nan nan nan nan nan nan nan nan nan nan nan nan nan nan nan
nan nan nan nan nan nan nan nan nan nan nan 276 280 282 283 286 287 290 291 289 287 282 278 274 272 270 270 270 268 267 265 265 265 264 262 265 263 nan nan nan nan nan nan nan nan nan nan nan nan nan nan nan nan nan nan nan nan nan nan nan nan nan nan nan nan nan nan nan nan nan nan nan nan nan nan nan nan nan nan nan nan nan nan nan nan
nan nan nan nan nan nan nan nan nan nan nan nan nan 273 276 279 280 283 283 283 285 283 278 277 274 272 270 270 271 267 267 267 267 266 269 268 266 nan nan nan nan nan nan nan nan nan nan nan nan nan nan nan nan nan nan nan nan nan nan nan nan nan nan nan nan nan nan nan nan nan nan nan nan nan nan nan nan nan nan nan nan nan nan nan nan
nan nan nan nan nan nan nan nan nan nan nan nan nan nan nan 275 276 275 275 278 279 278 279 278 275 274 273 272 270 269 266 265 266 268 268 270 270 270 nan nan nan nan nan nan nan nan nan nan nan nan nan nan nan nan nan nan nan nan nan nan nan nan nan nan nan nan nan nan nan nan nan nan nan nan nan nan nan nan nan nan nan nan nan nan nan
nan nan nan nan nan nan nan nan nan nan nan nan nan nan nan nan nan 271 274 274 273 276 277 277 277 275 273 273 272 270 268 266 267 266 269 270 271 272 nan nan nan nan nan nan nan nan nan nan nan nan nan nan nan nan nan nan nan nan nan nan nan nan nan nan nan nan nan nan nan nan nan nan nan nan nan nan nan nan nan nan nan nan nan nan nan
nan nan nan nan nan nan nan nan nan nan nan nan nan nan nan nan nan nan 270 271 272 273 274 275 276 277 276 275 274 271 270 270 268 268 268 269 270 271 nan nan nan nan nan nan nan nan nan nan nan nan nan nan nan nan nan nan nan nan nan nan nan nan nan nan nan nan nan nan nan nan nan nan nan nan nan nan nan nan nan nan nan nan nan nan nan
nan nan nan nan nan nan nan nan nan nan nan nan nan nan nan nan 265 268 269 271 272 272 272 272 274 275 276 276 275 273 272 269 269 267 266 266 267 nan nan nan nan nan nan nan nan nan nan nan nan nan nan nan nan nan nan nan nan nan nan nan nan nan nan nan nan nan nan nan nan nan nan nan nan nan nan nan nan nan nan nan nan nan nan nan nan
nan nan nan nan nan nan nan nan nan nan nan nan nan nan nan nan nan nan 268 270 270 270 267 268 272 273 273 274 274 275 274 272 270 270 267 265 265 nan nan nan nan nan nan nan nan nan nan nan nan nan nan nan nan nan nan nan nan nan nan nan nan nan nan nan nan nan nan nan nan nan nan nan nan nan nan nan nan nan nan nan nan nan nan nan nan
nan nan nan nan nan nan nan nan nan nan nan nan nan nan nan nan nan nan nan nan nan nan nan nan nan nan nan nan nan 270 272 271 271 270 269 267 nan nan nan nan nan nan nan nan nan nan nan nan nan nan nan nan nan nan nan nan nan nan nan nan nan nan nan nan nan nan nan nan nan nan nan nan nan nan nan nan nan nan nan nan nan nan nan nan nan
nan nan nan nan nan nan nan nan nan nan nan nan nan nan nan nan nan nan nan nan nan nan nan nan nan nan nan nan nan nan nan nan nan nan nan nan nan nan nan nan nan nan nan nan nan nan nan nan nan nan nan nan nan nan nan nan nan nan nan nan nan nan nan nan nan nan nan nan nan nan nan nan nan nan nan nan nan nan nan nan nan nan nan nan nan
nan nan nan nan nan nan nan nan nan nan nan nan nan nan nan nan nan nan nan nan nan nan nan nan nan nan nan nan nan nan nan nan nan nan nan nan nan nan nan nan nan nan nan nan nan nan nan nan nan nan nan nan nan nan nan nan nan nan nan nan nan nan nan nan nan nan nan nan nan nan nan nan nan nan nan nan nan nan nan nan nan nan nan nan nan
nan nan nan nan nan nan nan nan nan nan nan nan nan nan nan nan nan nan nan nan nan nan nan nan nan nan nan nan nan nan nan nan nan nan nan nan nan nan nan nan nan nan nan nan nan nan nan nan nan nan nan nan nan nan nan nan nan nan nan nan nan nan nan nan nan nan nan nan nan nan nan nan nan nan nan nan nan nan nan nan nan nan nan nan nan
nan nan nan nan nan nan nan nan nan nan nan nan nan nan nan nan nan nan nan nan nan nan nan nan nan nan nan nan nan nan nan nan nan nan nan nan nan nan nan nan nan nan nan nan nan nan nan nan nan nan nan nan nan nan nan nan nan nan nan nan nan nan nan nan nan nan nan nan nan nan nan nan nan nan nan nan nan nan nan nan nan nan nan nan nan
nan nan nan nan nan nan nan nan nan nan nan nan nan nan nan nan nan nan nan nan nan nan nan nan nan nan nan nan nan nan nan nan nan nan nan nan nan nan nan nan nan nan nan nan nan nan nan nan nan nan nan nan nan nan nan nan nan nan nan nan nan nan nan nan nan nan nan nan nan nan nan nan nan nan nan nan nan nan nan nan nan nan nan nan nan
nan nan nan nan nan nan nan nan nan nan nan nan nan nan nan nan nan nan nan nan nan nan nan nan nan nan nan nan nan nan nan nan nan nan nan nan nan nan nan nan nan nan nan nan nan nan nan nan nan nan nan nan nan nan nan nan nan nan nan nan nan nan nan nan nan nan nan nan nan nan nan nan nan nan nan nan nan nan nan nan nan nan nan nan nan
nan nan nan nan nan nan nan nan nan nan nan nan nan nan nan nan nan nan nan nan nan nan nan nan nan nan nan nan nan nan nan nan nan nan nan nan nan nan nan nan nan nan nan nan nan nan nan nan nan nan nan nan nan nan nan nan nan nan nan nan nan nan nan nan nan nan nan nan nan nan nan nan nan nan nan nan nan nan nan nan nan nan nan nan nan
nan nan nan nan nan nan nan nan nan nan nan nan nan nan nan nan nan nan nan nan nan nan nan nan nan nan nan nan nan nan nan nan nan nan nan nan nan nan nan nan nan nan nan nan nan nan nan nan nan nan nan nan nan nan nan nan nan nan nan nan nan nan nan nan nan nan nan nan nan nan nan nan nan nan nan nan nan nan nan nan nan nan nan nan nan
nan nan nan nan nan nan nan nan nan nan nan nan nan nan nan nan nan nan nan nan nan nan nan nan nan nan nan nan nan nan nan nan nan nan nan nan nan nan nan nan nan nan nan nan nan nan nan nan nan nan nan nan nan nan nan nan nan nan nan nan nan nan nan nan nan nan nan nan nan nan nan nan nan nan nan nan nan nan nan nan nan nan nan nan nan
nan nan nan nan nan nan nan nan nan nan nan nan nan nan nan nan nan nan nan nan nan nan nan nan nan nan nan nan nan nan nan nan nan nan nan nan nan nan nan nan nan nan nan nan nan nan nan nan nan nan nan nan nan nan nan nan nan nan nan nan nan nan nan nan nan nan nan nan nan nan nan nan nan nan nan nan nan nan nan nan nan nan nan nan nan
nan nan nan nan nan nan nan nan nan nan nan nan nan nan nan nan nan nan nan nan nan nan nan nan nan nan nan nan nan nan nan nan nan nan nan nan nan nan nan nan nan nan nan nan nan nan nan nan nan nan nan nan nan nan nan nan nan nan nan nan nan nan nan nan nan nan nan nan nan nan nan nan nan nan nan nan nan nan nan nan nan nan nan nan nan
nan nan nan nan nan nan nan nan nan nan nan nan nan nan nan nan nan nan nan nan nan nan nan nan nan nan nan nan nan nan nan nan nan nan nan nan nan nan nan nan nan nan nan nan nan nan nan nan nan nan nan nan nan nan nan nan nan nan nan nan nan nan nan nan nan nan nan nan nan nan nan nan nan nan nan nan nan nan nan nan nan nan nan nan nan
nan nan nan nan nan nan nan nan nan nan nan nan nan nan nan nan nan nan nan nan nan nan nan nan nan nan nan nan nan nan nan nan nan nan nan nan nan nan nan nan nan nan nan nan nan nan nan nan nan nan nan nan nan nan nan nan nan nan nan nan nan nan nan nan nan nan nan nan nan nan nan nan nan nan nan nan nan nan nan nan nan nan nan nan nan
nan nan nan nan nan nan nan nan nan nan nan nan nan nan nan nan nan nan nan nan nan nan nan nan nan nan nan nan nan nan nan nan nan nan nan nan nan nan nan nan nan nan nan nan nan nan nan nan nan nan nan nan nan nan nan nan nan nan nan nan nan nan nan nan nan nan nan nan nan nan nan nan nan nan nan nan nan nan nan nan nan nan nan nan nan
nan nan nan nan nan nan nan nan nan nan nan nan nan nan nan nan nan nan nan nan nan nan nan nan nan nan nan nan nan nan nan nan nan nan nan nan nan nan nan nan nan nan nan nan nan nan nan nan nan nan nan nan nan nan nan nan nan nan nan nan nan nan nan nan nan nan nan nan nan nan nan nan nan nan nan nan nan nan nan nan nan nan nan nan nan